Location: Unspecified
(48.2082°N, 0.0000°E)
Time: 15:39:32
(UTC+00:00)

S-56A Canister/Altair - Pass Details

Date: 21 August 2020
Orbit: 633 x 2499 km, 38.9° (Epoch: 23 September)

Event Time Altitude Azimuth Distance (km) Brightness Sun altitude
Exits shadow 02:32:24 14° 150° (SSE) 1,929 9.4 -21.3°
Maximum altitude 02:32:33 14° 148° (SSE) 1,936 9.4 -21.3°
Drops below altitude 10° 02:35:20 10° 116° (ESE) 2,381 10.2 -21.0°
Sets 02:39:23 0° 93° (E) 3,627 11.5 -20.6°
